GAOFEN 2

导读 | 豆包AI

高分二号(GAOFEN 2)是中国于2014年8月19日8时发射的光学遥感卫星,隶属于中国高分专项工程。它搭载两台高分辨率相机,空间分辨率首次突破米级,达到1米,能为国土、农业、环保、防灾等领域提供精准遥感数据,推动中国遥感应用进入亚米级时代,提升了中国对地观测能力。

Basic Information
目录编号:
40118
目录名称:
GAOFEN 2
国际标识:
2014-049A
轨道中心:
EARTH
卫星名称:
GAOFEN 2
卫星全名:
--
卫星状态:
在轨 (已飞行4225 天)
发射日期:
2014-08-19 UTC
国别 :
中国 (CN)
星等 :
--
Orbit Information
数据来源 国际轨道数据
星历时间: 2026-03-13T23:10:17+0800
11小时前
查看轨道信息
半长轴: 7005.005km
偏心率: 0.0007313
轨道倾角: 98.022°
近地点辐角 172.138°
升交点赤经 136.894°
平近点角 187.995°
近地点: 621.745km
远地点: 631.991km
周期: 97.246分钟
每日圈数: 14.807786
Detailed Information
使用方式:
暂无
2D Orbit Map
3D Orbit Map
Orbit Altitude Analysis Chart
Orbit Inclination Analysis Chart
Orbit Comprehensive Analysis Chart
View Comprehensive Chart